Temp
51 51 50 49 50 51 51 50 49 49 48 47 46 46 45 44 44 44 42 42 42 41 39 39 38 37 36 36 35 34 34 33 31 31 33 34 34 34 34 33 33 33 33
50 50 48 49 49 49 49 49 48 47 45 43 41 39 39 39 41 42 40 42 40 39 38 37 36 38 35 35 35 33 33 34 33 30 31 31 32 33 33 31 33 35 33
49 48 47 47 47 47 48 48 47 46 43 41 40 39 36 39 38 41 41 40 41 40 39 38 36 35 33 33 33 33 32 33 32 31 29 31 32 32 30 31 30 30 34
48 47 45 45 46 46 47 46 45 44 40 38 37 38 37 37 36 39 38 38 38 38 38 38 36 36 34 33 32 31 31 30 29 29 29 30 30 31 30 28 28 30 30
47 46 47 44 45 45 44 42 41 39 39 37 35 35 35 36 37 37 38 37 37 35 35 35 35 34 36 36 33 30 30 29 29 28 28 29 29 29 28 29 28 29 29
47 46 46 42 40 40 40 39 38 36 35 34 33 36 35 37 40 40 38 36 36 35 33 33 33 33 36 37 37 37 34 30 27 27 27 28 29 30 30 29 28 25 22
41 36 36 37 37 38 37 36 35 34 33 32 33 34 34 34 39 39 38 35 35 34 33 32 30 32 32 34 37 38 36 37 33 30 28 30 29 31 31 29 28 26 25
34 33 31 35 33 32 33 33 33 32 31 30 31 33 32 32 38 39 37 33 33 33 33 31 31 30 31 31 31 30 30 31 32 31 31 30 31 32 31 30 26 21 23
35 34 33 31 30 31 29 30 30 29 27 26 32 31 31 31 38 39 36 32 31 30 30 31 32 31 33 34 30 29 28 29 33 34 35 35 36 36 34 28 20 17 21
34 34 33 30 28 27 29 28 26 26 30 31 30 31 31 31 37 38 34 31 28 28 29 30 31 32 34 35 29 28 26 27 27 27 29 32 33 33 36 31 22 22 24
29 28 28 28 27 28 27 25 24 25 29 29 28 28 29 31 34 37 35 31 29 28 28 29 31 35 35 36 33 29 29 30 29 27 26 26 27 26 25 26 26 22 20
26 26 24 23 27 26 25 23 23 22 26 27 26 26 28 29 33 36 34 32 33 29 28 29 30 35 35 36 35 33 34 32 28 26 25 24 24 24 24 23 24 23 23
24 24 24 24 26 25 25 23 23 22 24 26 26 25 25 27 29 33 34 34 33 30 30 31 32 34 36 35 36 35 33 31 28 26 25 26 25 23 23 21 22 21 20
23 24 28 29 25 23 25 25 25 24 24 25 26 26 26 26 27 30 32 32 32 31 33 33 34 34 35 34 30 33 31 29 29 28 25 22 21 19 17 19 13 12 6
24 27 29 29 29 26 26 26 28 28 28 25 25 26 24 22 24 30 32 31 32 32 32 31 31 30 29 27 26 26 27 25 24 23 19 18 19 19 19 17 13 5 1
28 26 28 29 28 28 30 30 35 35 36 36 36 33 30 32 34 34 35 35 35 35 29 27 26 24 25 24 23 20 20 20 18 17 17 17 16 16 14 12 10 1 -2
29 28 28 27 27 26 26 26 25 29 33 33 33 33 33 33 34 35 35 35 35 33 23 23 20 19 18 20 19 17 15 14 13 14 13 12 12 11 8 8 7 3 -4
30 29 29 28 28 28 28 26 26 24 22 22 30 30 33 33 33 33 34 30 21 24 23 22 22 21 16 15 12 9 9 7 9 11 10 8 6 4 1 -1 -1 -8 -8
25 25 26 25 26 26 26 26 26 24 22 22 21 23 25 30 29 28 27 17 11 6 6 7 5 4 3 3 3 4 7 7 6 6 4 1 -0 -2 -5 -4 -3 -3 -7
20 22 22 21 21 20 20 21 21 20 21 22 16 15 14 15 9 7 10 9 7 1 0 -2 -3 -3 -4 -3 -3 -1 -3 -3 -2 -1 -2 -1 -4 -4 -6 -7 -10 -10 -13
18 18 19 18 17 18 18 18 18 18 18 14 13 16 22 11 7 3 2 2 1 -1 -1 -2 -4 -4 -4 -4 -6 -8 -9 -7 -8 -8 -9 -8 -7 -10 -10 -5 -12 -14 -14
15 14 14 13 13 13 13 14 14 13 11 10 10 12 16 8 5 3 -2 -7 -9 -9 -8 -6 -6 -8 -11 -12 -12 -12 -12 -12 -13 -12 -11 -12 -13 -11 -10 -11 -11 -9 -14
14 12 12 11 11 10 9 8 8 8 7 6 4 3 2 -2 -4 -5 -8 -10 -10 -11 -12 -13 -13 -13 -14 -14 -14 -12 -11 -12 -12 -11 -13 -14 -15 -14 -12 -9 -10 -13 -15
11 10 8 8 7 7 6 4 4 2 1 1 -2 -4 -2 -7 -9 -9 -11 -13 -12 -15 -15 -15 -15 -14 -15 -15 -15 -15 -14 -14 -15 -13 -12 -12 -12 -8 -11 -11 -9 -9 -8
7 6 6 4 4 3 3 2 -0 -2 -6 -6 -9 -7 -9 -9 -10 -12 -13 -13 -13 -14 -13 -14 -14 -12 -11 -10 -11 -12 -10 1 -9 -9 -15 -16 -16 -12 -11 -11 -11 -12 -12
5 4 3 2 1 -1 -2 -3 -8 -7 -7 -7 -9 -11 -10 -10 -11 -12 -12 -13 -13 -13 -14 -13 -10 -8 -7 -6 -6 -4 -3 1 -2 -2 -9 -10 -12 -11 -12 -11 -12 -11 -13
MSLP
1013.06 1013.20 1013.49 1013.79 1013.96 1014.14 1014.22 1014.29 1014.42 1014.80 1015.22 1015.65 1016.25 1016.88 1017.42 1017.92 1018.45 1019.03 1019.62 1020.02 1020.58 1021.15 1021.74 1022.27 1022.87 1023.31 1023.88 1024.32 1024.42 1024.11 1025.08 1026.03 1027.76 1029.03 1029.30 1029.78 1030.44 1030.97 1030.98 1031.39 1031.64 1031.78 1031.83
1012.44 1012.51 1012.83 1013.21 1013.54 1013.79 1013.82 1013.98 1014.32 1014.60 1015.02 1015.48 1015.98 1016.49 1016.94 1017.39 1017.90 1018.45 1018.97 1019.40 1019.89 1020.61 1021.15 1021.92 1022.67 1023.30 1023.87 1024.40 1024.66 1024.15 1024.98 1025.51 1026.54 1028.24 1029.24 1029.83 1030.28 1030.48 1030.58 1031.07 1031.19 1031.16 1031.28
1012.30 1012.64 1012.71 1012.66 1012.90 1013.01 1013.19 1013.38 1013.83 1014.32 1014.75 1015.32 1015.85 1016.35 1016.81 1017.13 1017.56 1017.92 1018.34 1018.73 1019.22 1019.79 1020.46 1021.13 1021.80 1022.74 1023.70 1024.42 1024.74 1024.54 1025.30 1025.85 1026.47 1027.46 1028.89 1029.53 1030.01 1030.07 1030.55 1030.70 1030.82 1030.88 1030.78
1011.50 1011.82 1012.16 1012.32 1012.41 1012.52 1012.76 1012.96 1013.22 1013.71 1014.32 1014.93 1015.43 1015.92 1016.30 1016.68 1017.09 1017.60 1017.99 1018.49 1018.93 1019.54 1020.22 1020.93 1021.75 1022.34 1022.97 1023.64 1024.25 1024.76 1025.50 1026.30 1026.85 1027.44 1028.33 1029.16 1029.15 1029.86 1030.26 1030.56 1030.71 1030.40 1030.29
1010.99 1011.16 1010.88 1011.21 1011.64 1011.98 1012.30 1012.58 1012.81 1013.22 1013.78 1014.43 1015.11 1015.64 1016.06 1016.43 1016.72 1017.13 1017.60 1018.07 1018.58 1019.27 1019.96 1020.62 1021.42 1022.06 1022.69 1023.32 1023.61 1024.56 1025.09 1025.96 1026.70 1027.40 1028.29 1028.58 1029.16 1029.58 1029.77 1029.96 1030.11 1030.01 1029.73
1010.52 1010.83 1010.94 1011.03 1011.38 1011.86 1012.25 1012.60 1012.88 1013.27 1013.75 1014.35 1014.97 1015.36 1015.68 1015.85 1016.11 1016.65 1017.19 1017.79 1018.30 1018.93 1019.81 1020.62 1021.26 1022.07 1022.80 1023.11 1023.58 1024.06 1024.27 1025.01 1026.21 1027.26 1027.78 1028.29 1028.56 1028.82 1028.93 1029.33 1029.65 1029.83 1029.59
1010.32 1010.74 1011.02 1011.42 1011.50 1011.74 1011.95 1012.51 1013.07 1013.57 1013.99 1014.47 1014.88 1015.23 1015.57 1015.70 1015.92 1016.37 1016.92 1017.38 1018.01 1018.65 1019.31 1020.14 1021.26 1022.10 1022.70 1023.06 1023.38 1023.78 1024.42 1024.85 1025.81 1026.45 1027.20 1027.50 1027.74 1027.73 1028.37 1028.65 1029.03 1029.21 1028.99
1010.33 1010.68 1011.18 1011.41 1011.58 1011.91 1012.01 1012.28 1012.98 1013.56 1014.08 1014.55 1014.92 1015.24 1015.56 1015.75 1016.01 1016.37 1016.89 1017.38 1017.93 1018.53 1019.00 1019.65 1020.51 1021.64 1022.25 1022.63 1023.28 1023.92 1024.51 1024.89 1025.61 1025.93 1026.40 1026.70 1027.01 1027.34 1027.61 1027.88 1028.42 1028.59 1028.45
1010.79 1011.00 1011.29 1011.53 1011.91 1012.11 1012.30 1012.60 1013.02 1013.61 1014.26 1014.66 1014.79 1015.16 1015.51 1015.85 1016.10 1016.42 1017.02 1017.58 1018.10 1018.51 1019.03 1019.57 1020.10 1020.85 1021.62 1022.31 1023.02 1023.70 1024.28 1025.01 1025.21 1025.49 1025.81 1026.18 1026.46 1026.81 1027.16 1027.68 1028.17 1028.58 1028.27
1011.28 1011.42 1011.60 1011.78 1012.07 1012.30 1012.54 1012.91 1013.16 1013.60 1014.11 1014.65 1015.11 1015.35 1015.52 1015.77 1015.99 1016.39 1017.00 1017.59 1018.23 1018.84 1019.48 1019.77 1020.17 1020.76 1021.43 1021.93 1022.63 1023.38 1024.21 1024.45 1024.95 1025.28 1025.60 1025.72 1025.87 1026.16 1026.28 1026.75 1027.31 1027.83 1027.87
1011.59 1011.75 1012.00 1011.99 1012.32 1012.37 1012.61 1012.87 1013.46 1013.97 1014.46 1014.92 1015.26 1015.49 1015.73 1015.85 1016.03 1016.49 1017.20 1017.68 1018.32 1018.94 1019.56 1020.10 1020.56 1020.97 1021.43 1021.75 1022.30 1022.90 1023.46 1023.95 1024.52 1025.03 1025.34 1025.69 1025.92 1026.09 1026.30 1026.49 1026.73 1027.11 1027.63
1012.13 1012.49 1012.71 1012.77 1012.70 1012.88 1013.27 1013.74 1014.01 1014.54 1014.94 1015.33 1015.68 1016.14 1016.32 1016.31 1016.51 1016.83 1017.50 1018.16 1018.57 1018.96 1019.48 1019.92 1020.44 1020.84 1021.16 1021.55 1021.92 1022.35 1022.70 1023.33 1024.13 1024.63 1025.10 1025.39 1025.74 1025.98 1026.12 1026.34 1026.56 1026.82 1027.20
1013.09 1013.06 1013.16 1013.23 1013.47 1013.54 1013.81 1014.42 1014.70 1014.85 1015.21 1015.45 1015.78 1016.28 1016.55 1016.72 1016.95 1017.21 1017.67 1018.26 1018.76 1019.23 1019.69 1020.28 1020.82 1021.30 1021.62 1021.79 1021.87 1021.90 1022.25 1022.62 1023.20 1023.91 1024.39 1024.84 1025.04 1025.31 1025.97 1026.53 1026.70 1027.04 1027.31
1013.14 1013.26 1013.39 1013.40 1013.93 1014.52 1014.29 1014.51 1014.81 1014.98 1015.53 1015.72 1015.78 1015.94 1016.11 1016.47 1016.68 1016.75 1017.13 1017.79 1018.38 1019.06 1019.26 1019.84 1020.26 1020.98 1021.40 1021.56 1021.74 1021.91 1022.04 1022.34 1022.89 1023.21 1023.64 1024.45 1025.16 1025.65 1026.23 1026.47 1026.91 1027.44 1027.80
1013.03 1013.49 1013.67 1013.69 1013.63 1014.52 1014.83 1014.87 1014.99 1014.84 1014.93 1015.17 1015.76 1016.14 1016.46 1016.72 1016.74 1016.78 1016.95 1017.36 1017.96 1018.56 1018.97 1019.51 1019.85 1020.50 1021.10 1021.25 1021.53 1022.05 1021.96 1022.09 1022.45 1023.05 1023.67 1024.56 1025.16 1025.64 1026.12 1026.54 1027.08 1027.58 1028.26
1013.35 1013.73 1013.87 1013.68 1014.01 1014.62 1014.95 1015.00 1015.23 1015.48 1015.32 1015.32 1015.80 1015.90 1016.29 1016.40 1016.55 1016.79 1017.06 1017.51 1018.08 1018.66 1019.27 1019.55 1019.82 1020.24 1020.92 1021.37 1021.75 1021.87 1022.40 1022.52 1022.77 1023.27 1023.97 1024.58 1025.20 1025.79 1026.42 1027.05 1027.31 1027.94 1028.43
1012.85 1013.46 1013.59 1013.98 1014.90 1015.09 1015.35 1015.61 1015.82 1016.29 1016.35 1016.16 1016.49 1016.59 1016.75 1016.97 1017.26 1017.21 1017.19 1017.55 1018.09 1018.70 1019.47 1019.90 1020.31 1020.75 1021.34 1021.73 1021.98 1022.30 1022.93 1023.56 1023.55 1023.94 1024.48 1025.03 1025.61 1026.20 1026.73 1027.15 1027.54 1028.12 1028.57
1013.10 1013.71 1013.79 1014.63 1015.09 1015.34 1015.51 1016.05 1016.37 1016.73 1017.17 1017.55 1017.28 1017.24 1017.14 1017.52 1017.95 1017.85 1017.78 1018.20 1018.92 1019.36 1020.09 1020.78 1021.21 1021.60 1021.99 1022.36 1022.49 1023.05 1023.62 1024.32 1024.36 1024.56 1025.00 1025.51 1025.98 1026.50 1027.00 1027.38 1027.88 1028.34 1028.75
1013.55 1014.58 1014.58 1015.25 1015.30 1015.78 1015.96 1016.31 1016.61 1017.39 1018.23 1018.53 1018.76 1018.76 1018.74 1018.77 1018.59 1019.12 1019.46 1019.97 1020.52 1021.08 1021.57 1022.12 1021.99 1022.24 1022.74 1022.89 1022.99 1023.42 1023.97 1024.57 1024.74 1025.07 1025.46 1025.87 1026.28 1026.72 1027.34 1027.73 1028.13 1028.56 1028.96
1015.27 1015.36 1015.28 1015.98 1016.40 1016.63 1016.86 1017.10 1017.59 1018.25 1018.67 1019.14 1019.85 1020.29 1020.26 1019.86 1020.57 1021.31 1021.51 1022.06 1022.43 1022.86 1022.94 1023.57 1023.30 1023.17 1023.53 1023.71 1023.82 1024.16 1024.75 1025.06 1025.21 1025.39 1025.70 1026.04 1026.38 1026.72 1027.49 1027.93 1028.30 1028.70 1028.99
1016.06 1016.52 1016.71 1016.69 1017.38 1017.61 1017.68 1017.97 1018.60 1019.09 1019.57 1020.65 1021.20 1021.09 1021.24 1021.23 1021.90 1022.71 1023.11 1023.59 1023.90 1024.00 1024.30 1024.42 1024.38 1024.48 1024.58 1024.64 1024.84 1025.18 1025.40 1025.42 1025.49 1025.71 1025.92 1026.15 1026.44 1026.95 1027.01 1027.35 1027.81 1028.26 1028.71
1017.13 1017.14 1017.92 1018.31 1018.57 1018.63 1018.86 1019.20 1019.61 1019.89 1020.56 1021.29 1021.90 1022.05 1022.45 1022.49 1022.80 1023.44 1024.10 1024.62 1024.99 1024.99 1025.04 1024.92 1025.16 1025.18 1025.07 1025.37 1025.66 1025.60 1025.60 1025.64 1025.72 1025.89 1026.13 1026.34 1026.60 1026.92 1027.25 1027.54 1027.82 1028.12 1028.55
1017.60 1018.04 1018.86 1019.03 1019.13 1019.76 1019.86 1020.79 1020.93 1021.36 1022.08 1022.46 1022.87 1023.03 1023.25 1023.64 1023.91 1024.28 1024.79 1025.14 1025.26 1025.03 1025.06 1025.06 1025.23 1025.37 1025.37 1025.42 1025.34 1025.41 1025.58 1025.56 1025.75 1025.85 1026.28 1026.44 1026.69 1026.88 1027.10 1027.47 1027.76 1028.21 1028.36
1018.80 1019.34 1019.84 1020.10 1020.39 1020.78 1021.45 1022.00 1022.31 1022.61 1023.02 1023.52 1023.87 1023.96 1024.09 1024.31 1024.57 1024.75 1025.04 1025.33 1025.02 1025.10 1025.11 1025.19 1025.20 1025.18 1025.31 1025.38 1025.20 1025.14 1025.20 1025.23 1025.15 1025.30 1025.49 1026.10 1026.59 1026.88 1027.04 1027.15 1027.30 1027.55 1027.66
1019.95 1020.53 1021.01 1021.52 1022.06 1022.37 1022.61 1022.74 1023.03 1023.34 1023.91 1024.50 1024.90 1024.69 1024.66 1024.67 1024.80 1024.92 1025.20 1024.96 1024.93 1024.97 1024.87 1024.83 1024.77 1024.74 1024.83 1024.83 1024.88 1024.79 1024.67 1024.57 1024.84 1024.98 1025.36 1025.77 1026.32 1026.41 1026.74 1026.94 1027.01 1027.12 1027.36
1021.33 1021.79 1022.26 1022.68 1022.94 1023.06 1023.33 1023.64 1023.97 1024.38 1024.89 1024.83 1024.88 1024.78 1024.70 1024.81 1024.87 1024.96 1025.10 1025.02 1025.04 1024.68 1024.58 1024.41 1024.21 1024.17 1024.22 1024.19 1024.17 1024.19 1024.21 1024.13 1024.26 1024.46 1024.93 1025.41 1025.86 1025.80 1025.88 1026.24 1026.54 1026.75 1027.01
Wind_Speed
8 7 7 7 7 7 7 7 7 6 7 9 11 12 12 11 10 10 9 10 12 10 6 9 8 6 6 4 4 4 5 4 7 2 3 3 5 5 5 4 5 5 4
8 8 8 7 7 7 7 7 6 7 5 7 7 8 8 9 10 12 11 11 13 12 11 11 10 7 8 6 5 6 5 4 5 7 3 3 4 5 4 5 4 4 4
7 7 7 8 8 8 8 7 7 7 7 7 8 9 8 11 11 12 13 11 12 13 14 14 13 13 10 6 4 6 5 4 4 5 4 2 2 2 2 3 4 5 5
8 8 8 8 9 7 7 7 8 8 8 7 7 8 9 9 9 10 9 10 9 8 8 9 11 14 13 11 8 7 6 5 4 4 3 3 3 2 2 3 4 3 4
9 9 13 8 7 7 7 7 7 8 8 8 7 6 7 7 7 10 11 10 10 9 8 9 9 10 14 12 9 8 9 5 4 3 3 2 3 3 3 3 4 3 3
9 11 8 7 7 7 7 7 6 7 7 7 7 8 9 7 13 16 11 9 10 11 10 9 10 13 15 17 16 17 13 9 5 4 3 3 4 4 3 4 3 2 3
8 4 4 5 6 7 6 6 6 6 5 6 6 6 6 6 14 16 15 8 10 10 12 12 10 8 12 10 16 17 12 12 8 6 5 6 5 6 5 4 5 4 5
3 3 3 4 4 4 5 6 6 5 6 5 4 4 4 4 12 15 14 7 7 9 11 13 14 14 12 13 12 9 7 7 9 6 8 6 4 4 5 4 5 3 2
3 3 5 4 5 4 4 5 3 5 3 3 3 6 6 4 13 16 13 7 8 9 10 11 13 13 18 18 10 9 7 7 11 15 15 14 12 13 10 3 3 1 5
3 3 3 3 4 4 4 4 3 3 4 4 4 4 5 6 16 17 13 7 8 6 7 8 12 12 21 19 9 8 8 8 7 6 5 10 12 8 12 6 3 6 6
3 3 3 3 4 4 4 3 5 5 6 5 5 4 4 5 10 18 16 6 6 6 6 6 5 14 16 17 13 7 7 5 10 7 5 5 4 4 4 3 3 3 2
5 5 4 4 3 4 6 5 6 6 6 5 5 4 3 3 6 14 15 9 9 6 6 6 7 13 14 13 11 12 11 9 5 4 4 4 4 5 3 3 4 4 3
4 5 5 6 5 5 7 5 5 5 5 5 5 4 3 3 2 3 9 9 11 5 5 8 11 14 15 11 14 13 12 6 5 5 6 6 3 4 5 3 3 4 3
5 5 7 8 6 4 3 4 4 4 3 4 4 5 5 5 3 4 5 7 9 6 9 7 10 11 13 11 5 8 3 4 5 5 3 4 4 3 2 2 2 2 3
6 7 7 6 7 5 3 3 3 2 4 4 2 3 4 3 4 7 8 6 6 7 6 5 4 4 5 4 3 4 4 4 3 3 3 3 3 3 2 2 2 1 3
7 4 5 6 5 4 6 7 12 10 10 9 7 7 2 6 10 11 11 10 9 9 2 2 3 4 5 4 4 3 1 3 3 4 3 3 3 3 3 2 2 2 2
8 6 5 6 5 5 4 5 7 9 16 15 13 11 8 5 4 6 7 8 9 7 3 2 3 3 2 3 3 2 2 2 3 4 3 3 3 3 3 2 2 2 1
7 7 6 5 5 4 4 5 4 5 6 4 10 10 11 9 7 6 7 9 4 4 2 3 2 3 2 3 3 3 4 2 2 3 3 3 3 3 2 2 2 3 2
7 5 6 5 5 5 5 5 6 6 5 4 5 10 11 16 18 15 12 4 3 3 3 3 2 3 2 3 4 4 4 3 3 3 3 3 3 3 2 2 3 3 3
7 9 8 5 5 5 5 6 6 5 4 4 5 3 3 5 5 5 5 4 4 3 3 3 3 3 3 3 3 3 2 2 3 3 3 3 3 3 3 3 3 3 2
6 6 8 7 6 6 6 7 6 6 6 6 4 3 11 5 5 4 4 4 4 4 3 2 2 2 1 2 2 2 2 2 3 3 3 3 3 3 3 3 3 3 3
6 7 7 7 5 7 7 6 6 7 6 5 4 6 12 5 5 4 4 3 1 2 1 2 2 2 2 3 3 2 2 2 2 3 3 3 3 3 2 2 2 2 2
7 8 7 7 7 7 8 6 6 6 5 5 4 4 4 3 3 3 2 1 1 1 1 2 2 0 1 1 1 3 4 4 4 4 4 3 3 3 3 3 3 3 3
8 8 7 7 7 6 6 5 5 6 4 4 4 3 3 2 2 1 0 0 0 1 1 1 2 2 2 3 2 2 2 2 1 4 6 4 3 3 2 2 3 4 3
8 7 7 6 5 4 5 4 4 4 4 3 2 1 1 1 0 2 2 2 2 2 3 3 3 4 6 7 6 5 5 6 4 4 3 4 5 5 3 3 3 3 3
7 7 5 4 4 4 4 4 3 3 2 2 1 0 1 1 2 3 3 3 3 3 4 3 4 7 7 6 8 8 9 9 7 8 5 4 4 4 4 4 5 3 4
Wind_Direction
205 209 211 223 226 221 221 213 204 190 182 176 178 182 181 180 183 186 178 178 186 178 170 173 177 154 164 177 179 144 132 130 129 122 116 145 154 175 172 194 220 231 240
206 202 204 210 220 231 223 212 198 200 184 171 163 164 169 174 178 187 184 187 181 182 178 170 176 162 170 180 183 138 135 126 125 137 125 139 174 195 189 201 220 218 225
207 212 213 213 212 218 216 201 196 190 183 173 171 178 179 184 183 192 191 187 188 190 185 183 173 166 167 164 172 130 123 103 98 124 130 114 166 148 182 223 234 243 242
199 203 217 219 216 212 210 204 195 184 173 176 183 185 185 183 183 188 185 186 183 179 178 181 176 176 169 159 148 136 122 113 109 101 101 171 125 176 162 203 256 234 251
202 209 218 203 205 206 211 205 190 178 173 174 175 183 178 181 184 186 186 181 177 166 160 154 160 151 152 160 151 150 138 127 128 111 145 115 163 164 187 199 225 232 249
204 221 224 194 191 204 208 204 182 173 168 169 182 185 186 190 194 192 177 178 174 167 155 139 134 138 154 156 157 155 154 144 139 141 144 181 187 195 169 207 220 216 284
222 233 206 196 196 200 186 176 173 170 153 175 179 177 193 188 189 190 177 167 170 170 157 143 136 148 151 151 156 154 152 143 148 160 176 192 183 180 200 210 214 208 231
221 179 222 193 194 176 161 165 154 153 165 161 163 165 155 179 187 190 160 148 150 158 156 155 155 159 166 157 152 150 152 160 197 191 202 199 209 172 193 192 204 220 285
231 216 216 184 176 164 158 154 137 124 128 139 151 154 155 161 181 180 162 145 145 147 151 158 163 164 167 159 153 159 159 200 208 219 231 234 239 232 217 194 222 179 268
251 234 199 158 155 156 148 135 110 119 126 127 131 149 155 164 180 184 161 151 151 149 153 157 163 159 168 169 158 156 182 209 192 207 233 252 263 250 255 244 165 234 274
65 69 77 105 130 136 119 95 112 103 114 115 121 125 151 166 179 180 174 156 160 155 155 155 164 174 178 179 174 175 198 172 207 211 216 222 208 197 205 201 178 155 195
72 73 62 56 65 76 95 80 85 94 101 100 100 76 48 74 177 193 172 169 168 154 157 156 168 190 190 198 201 204 215 199 175 192 200 206 212 211 193 152 120 104 97
77 81 75 69 64 76 96 92 93 94 107 114 113 111 97 60 69 168 174 169 166 137 142 166 180 207 220 222 219 223 224 200 178 191 208 226 193 127 117 117 116 110 112
111 107 110 103 85 57 75 108 119 119 121 132 143 148 148 156 146 149 156 163 175 158 170 176 181 194 203 213 212 233 206 182 204 215 154 115 122 119 131 143 126 131 107
115 121 118 116 106 90 78 109 87 87 137 139 144 128 139 159 195 170 166 159 160 173 160 156 167 177 199 192 164 187 159 142 134 128 120 134 137 133 135 122 110 87 133
120 119 126 116 105 103 114 98 81 78 86 99 121 109 59 160 176 181 187 186 186 170 108 146 160 164 182 182 178 148 84 129 110 112 116 124 133 138 134 125 116 122 142
131 131 112 108 125 131 111 101 101 72 70 67 65 69 68 84 117 167 176 185 195 160 133 113 127 141 175 161 142 112 106 64 90 100 113 119 125 130 145 160 146 132 129
105 103 103 106 120 103 106 111 110 90 74 34 56 79 78 87 99 106 119 91 64 57 88 114 122 104 88 121 114 107 106 114 104 121 124 132 141 145 135 141 147 150 155
79 72 80 77 77 81 82 88 91 95 95 84 56 45 34 69 66 53 50 62 89 58 40 55 78 98 99 111 111 108 125 148 146 142 145 146 149 133 145 152 152 157 154
60 81 86 82 79 79 73 81 88 96 102 92 69 37 353 30 42 31 34 32 45 50 45 58 32 59 81 106 101 104 111 136 148 149 156 154 153 149 153 164 159 163 207
81 74 80 79 73 79 85 81 75 72 69 70 57 26 53 77 67 61 54 43 41 42 43 74 58 64 67 88 112 141 167 188 172 172 163 164 152 155 165 154 162 189 184
87 81 73 74 78 73 69 68 77 83 84 89 74 44 61 60 68 70 68 65 67 96 83 127 135 166 175 168 176 171 191 202 199 162 167 161 155 151 151 151 178 192 195
78 83 83 84 81 77 73 58 68 74 78 71 70 67 55 55 57 74 110 165 111 84 24 65 92 330 299 230 191 171 179 209 209 174 171 168 167 174 174 183 191 203 199
77 75 75 68 64 74 78 84 81 75 79 72 67 65 71 70 71 62 263 277 52 300 210 199 211 217 240 247 245 239 211 232 181 180 168 166 178 191 178 178 189 205 199
64 69 69 68 73 83 93 86 81 76 70 76 67 60 71 69 356 276 256 228 226 238 257 238 219 223 235 241 242 233 229 243 204 186 164 162 180 183 188 206 201 206 211
72 73 77 83 82 74 73 74 69 83 93 92 112 181 196 242 251 249 253 244 244 250 257 251 247 243 243 244 241 237 234 235 227 209 185 185 198 201 188 207 211 206 202